STARLINK-34441

Last updated on Thu Jul 03 2025 00:02:07 GMT+0000 (Coordinated Universal Time)

1 64430U 25129U 25183.58335648 -.01580687 00000+0 -18786-1 0 9994 2 64430 69.9998 351.5417 0003427 266.9450 39.1869 15.63988196 3682
UTC large
Height (km)
Speed (km/s)
/
Latitude / Longitude
Inclination (degrees)
Orbital Period (minutes)
Azimuth
Elevation
Range (km)
Doppler Factor

Next 0 passes for location: London (51.5072 / 0.1276)

Sorry there are no passes over London.